Regional Weather Roundup
Issued by NWS

Home | Current Version | Previous Version | Text Only | Print | Product List | Glossary On
Versions: 1 2 3 4 5 6 7 8 9 10 11 12 13 14 15 16 17 18 19 20 21 22 23 24 25 26 27 28 29 30 31 32 33 34 35 36 37 38 39 40 41 42 43 44 45 46 47 48 49 50
000
ASUS43 KIND 291109
RWRIN

WEATHER ROUNDUP FOR INDIANA
NATIONAL WEATHER SERVICE INDIANAPOLIS IN
700 AM EDT FRI MAY 29 2015

NOTE: "FAIR" INDICATES FEW OR NO CLOUDS BELOW 12,000 FEET WITH NO
SIGNIFICANT WEATHER AND/OR OBSTRUCTIONS TO VISIBILITY.

* - STATION DOES NOT REPORT WEATHER SUCH AS PRECIPITATION OR FOG.

+ - STATION NOT QUALITY CONTROLLED BY THE NATIONAL WEATHER SERVICE.
    USE DATA WITH CAUTION...ESPECIALLY DEWPOINT AND RELATIVE
    HUMIDITY OBSERVATIONS.

INZ001>003-010>013-019-020-291200-
NORTHWEST INDIANA

CITY           SKY/WX    TMP DP  RH WIND       PRES   REMARKS
GARY /AIRPORT/ CLOUDY    68  64  88 S6        30.05S
KNOX *+        MOCLDY    64  63  94 SE9       30.06F
LA PORTE +     MOCLDY    66  64  91 SE5       30.07F
MICHIGAN CITY+ MOCLDY    66  59  77 CALM      30.06S
MONTICELLO +   MOCLDY    65  64  94 SE5       30.07S
RENSSELAER +   MOCLDY    68  64  88 SE7       30.07R
VALPARAISO     MOCLDY    66  62  87 SE7       30.07S

$$

LMZ046-743>745-291200-
SOUTHERN LAKE MICHIGAN

STATION/POSITION TIME  TEMP    WIND        PRES    WAVE
                       AIR SEA DIR/SP/G            HT
                 (UTC) (F)     (DEG/KT/KT) (MB)    (FT)
BURNS HARBOR     1100   70     170/  9/ 14 1017.6S
MICHIGAN CITY    1100   69     130/  9/ 10   N/A
5NW MICH CITY    1100   62 55  170/  4/  6   N/A     1

$$

INZ004-005-014>016-021>024-291200-
NORTH CENTRAL INDIANA

CITY           SKY/WX    TMP DP  RH WIND       PRES   REMARKS
ELKHART        MOCLDY    63  59  88 SE6       30.09
GOSHEN         PTCLDY    63  59  87 SE7       30.10F FOG
LOGANSPORT +   MOCLDY    63  59  88 SE7       30.09F FOG
PERU/GRISSOM   MOCLDY    64  62  93 SE7       30.09S
ROCHESTER +    MOCLDY    66  66 100 SE7       30.10F FOG
SOUTH BEND     MOCLDY    65  60  84 E6        30.08F
WARSAW +       PTCLDY    63  61  94 CALM      30.11S FOG

$$

INZ006>009-017-018-025>027-291200-
NORTHEAST INDIANA

CITY           SKY/WX    TMP DP  RH WIND       PRES   REMARKS
ANGOLA *+      CLEAR     61  48  63 CALM      30.12F
AUBURN +       CLEAR     59  55  88 E3        30.13F FOG
FORT WAYNE     MOCLDY    63  60  90 CALM      30.13S
HUNTINGTON +   PTCLDY    60  59  96 CALM      30.12S FOG

$$

INZ028-029-035-036-043>045-051>053-291200-
WEST CENTRAL INDIANA

CITY           SKY/WX    TMP DP  RH WIND       PRES   REMARKS
CRAWFORDSVL +  PTCLDY    64  58  83 SE6       30.09R
GREENCASTLE +  PTCLDY    61  57  88 S5        30.09F FOG
LAFAYETTE      MOCLDY    65  62  90 SE3       30.07S
TERRE HAUTE    PTCLDY    67  64  90 SE6       30.08R

$$

INZ030>032-037>040-046>048-054>057-064-065-291200-
CENTRAL INDIANA

CITY           SKY/WX    TMP DP  RH WIND       PRES   REMARKS
CP ATTERBURY + FOG       61  59  94 CALM      30.11F VSB 1/2
COLUMBUS       CLEAR     61  59  94 CALM      30.12
FISHERS *+     CLEAR     63  63 100 SE5       30.11S
FRANKFORT +    MOCLDY    64  64 100 E7        30.11S HAZE
GREENWOOD *+   CLEAR     66  61  82 SE7       30.11S
INDIANAPOLIS   MOCLDY    65  62  90 SE7       30.09S
-EAGLE CREEK   PTCLDY    66  63  90 SE5       30.10S
KOKOMO *+      MOCLDY    63  61  94 SE6       30.11R
MARION +       MOCLDY    63  62  94 SE3       30.13R FOG
MT COMFORT *+  CLEAR     64 N/A N/A SE6       30.12S
SHELBYVILLE    MOCLDY    67  63  87 SE6       30.11S
ZIONSVILLE +   PTCLDY    65  62  87 SE5       30.11S FOG

$$

INZ033-034-041-042-049-050-058-059-291200-
EAST CENTRAL INDIANA

CITY           SKY/WX    TMP DP  RH WIND       PRES   REMARKS
MUNCIE         PTCLDY    67  63  87 S5        30.13R FOG

$$

INZ060-061-067>069-081>083-085>088-291200-
SOUTHWEST INDIANA

CITY           SKY/WX    TMP DP  RH WIND       PRES   REMARKS
EVANSVILLE     CLEAR     66  64  93 CALM      30.08R
HUNTINGBURG *+ CLEAR     64  61  88 SE6       30.09S
WASHINGTON +   CLEAR     65  61  87 CALM      30.08R

$$

INZ062-063-066-070>080-084-089>092-291200-
SOUTH CENTRAL AND SOUTHEAST INDIANA

CITY           SKY/WX    TMP DP  RH WIND       PRES   REMARKS
BLOOMINGTON    CLEAR     63  62  97 SE5       30.10S FOG
MADISON *+     CLEAR     66  63  88 SE3       30.15R
NORTH VERNON + CLEAR     64  64 100 CALM      30.13S
SEYMOUR +      CLEAR     66  63  88 SE3       30.11S

$$



USA.gov is the U.S. government's official web portal to all federal, state and local government web resources and services.